Reflectivity
6 16 20 37 28 25 20 -20 -20 -20 -20 -20 -20 -20 -20 -20 -20 -20 -20 -20 -20 -20 -20 -20 -20 -20 -20 -20 -20 -20 -20 -20 -20 -20 -20 -20 -20 -20 -20 -20 -20 -20 -20 -20
11 17 12 34 34 34 -3 -10 -20 -20 -20 -20 -20 -20 -20 -20 -20 -20 -20 -20 -20 -20 -20 -20 -20 -20 -20 -20 -20 -20 -20 -20 -20 -20 -20 -20 -20 -20 -20 -20 -20 -20 -20 -20
7 12 17 30 30 25 -17 -19 -20 -20 -20 -20 -20 -20 -20 -20 -20 -20 -20 -20 -20 -20 -20 -20 -20 -20 -20 -20 -20 -20 -20 -20 -20 -20 -20 -20 -20 -20 -20 -20 -20 -20 -20 -20
-7 14 7 36 33 1 -8 -20 -20 -20 -20 -20 -20 -20 -20 -20 -20 -20 -20 -20 -20 -20 -20 -20 -20 -20 -20 -20 -20 -20 -20 -20 -20 -20 -20 -20 -20 -20 -20 -20 -20 -20 -20 -20
-20 10 4 20 -17 6 -20 -20 -20 -20 -20 12 -11 -20 -20 -20 -20 -20 -20 -20 -20 -20 -20 -20 -20 -20 -20 -20 -20 -20 -20 -20 -20 -20 -20 -20 -20 -20 -20 -20 -20 -20 -20 -20
-14 -20 -7 8 30 -2 17 -20 -20 -20 -20 -20 -20 -20 -20 -20 -20 -20 -20 -20 -20 -20 -20 -20 -20 -20 -20 -20 -20 -20 -20 -20 -20 -20 -20 -20 -20 -20 -20 -20 -20 -20 -20 -20
-1 -20 -20 12 15 34 -2 -20 -20 -20 -20 -20 -20 -20 -20 -20 -20 -20 -20 -20 -20 -20 -20 -20 -20 -20 -20 -20 -20 -20 -20 -20 -20 -20 -20 -15 -20 -20 -20 -20 -20 -20 -20 -20
-20 -20 5 22 37 28 6 -20 -20 -20 -20 -20 -20 -20 -20 -20 -20 -20 -20 -20 -20 -20 -20 -20 -20 -20 -20 -20 -20 -20 -20 -20 -20 -20 -20 -20 -20 -20 -20 -20 -20 -20 -20 -20
-20 -20 17 14 15 23 -18 -20 -20 -20 -20 -20 -20 -20 -20 -20 5 -10 -20 -20 -20 -20 -20 -20 -20 -20 -20 -20 -20 -20 -20 -20 -20 -20 -20 -20 -20 -20 -20 -20 -20 -20 -20 -20
6 -4 19 26 18 -11 -8 12 -20 -20 -20 -20 -20 -20 -11 -4 -15 -20 -20 -20 -20 -20 -20 -20 -20 -20 -20 -20 -20 -20 -20 -20 -20 -20 -20 -20 -20 -20 -20 -20 -20 -20 -20 -20
17 6 -4 7 -2 25 16 -20 -20 -19 -20 -20 -20 -20 -9 -15 -20 -20 -20 -20 -20 -20 -20 -20 -20 -20 -20 -20 -20 -20 -20 -20 -20 -20 -20 -20 -20 -20 -20 -20 -20 -20 -20 -20
-2 -20 -20 22 27 32 11 -1 19 -19 -20 -20 -20 -8 1 -19 -20 -20 -20 -20 -20 -20 -20 -20 -20 -20 -20 -20 -20 -20 -20 -20 -20 -20 -20 -20 -20 -20 -20 -20 -20 -20 -20 -20
-6 11 11 24 15 -18 -20 -9 -10 -20 -20 -20 -20 -20 -20 -20 -20 -20 -20 -20 -20 -20 -20 -20 -20 -20 -20 -20 -20 -20 -20 -20 -20 -20 -20 -20 -20 -20 -20 -20 -20 -20 -20 -20
-9 4 20 26 21 19 17 -3 14 10 -16 -20 -20 -16 -20 -20 -20 -20 -20 -20 -20 -20 -20 -20 -20 -20 -20 -20 -20 -20 -20 -20 -20 -20 -20 -20 -20 -20 -20 -20 -20 -20 -20 -20
-5 19 23 23 19 15 21 24 -4 8 4 -3 -2 -19 -20 -20 -20 -20 -20 -20 -20 -20 -20 -20 -20 -20 -20 -20 -20 -20 -20 -20 -20 -20 -20 -20 -20 -20 -20 -20 -20 -20 -20 -20
25 15 17 20 29 22 22 9 12 -0 -14 -20 -20 -19 -20 -20 -20 -20 -20 -20 -20 -20 -20 -20 -20 -20 -20 -20 -20 -20 -20 -20 -20 -20 -20 -20 -20 -20 -20 -20 -20 -20 -20 -20
21 24 23 32 32 24 10 -10 -12 -17 -20 -15 -20 -20 -20 -20 -20 -20 -20 -20 -20 -20 -20 -20 -20 -20 -20 -20 -20 -20 -20 -20 -20 -20 -20 -20 -20 -20 -20 -20 -20 -20 -20 -20
28 34 33 31 28 25 19 15 25 10 -3 -14 -20 -20 -20 -20 -20 -20 -20 -20 -20 -20 -20 -20 -20 -20 -20 -20 -20 -20 -20 -20 -20 -20 -20 -20 -20 -20 -20 -20 -20 -20 -20 -20
31 28 16 23 15 10 -2 0 19 13 -3 -11 -17 -19 -20 -20 -20 -20 -20 -20 -20 -20 -20 -20 -20 -20 -20 -20 -20 -20 -20 -20 -20 -20 -20 -20 -20 -20 -20 -20 -20 -20 -20 -20
23 17 16 22 10 3 10 15 6 -20 -20 -12 -19 -20 -20 -20 -20 -20 -20 -20 -20 -20 -20 -20 -20 -20 -20 -20 -20 -20 -20 -20 -20 -20 -20 -20 -20 -20 -20 -20 -20 -20 -20 -20
8 10 -3 -13 -4 13 12 4 -19 -20 -20 -20 -20 -20 -20 -20 -20 -20 -20 -20 -20 -20 -20 -20 -20 -20 -20 -20 -20 -20 -20 -20 -20 -20 -20 -20 -20 -20 -20 -20 -20 -20 -20 -20
7 -18 -10 8 -4 -20 -20 -20 -20 -20 -16 -20 -20 -20 -20 -20 -20 -20 -20 -20 -20 -20 -20 -20 -20 -20 -20 -20 -20 -20 -20 -20 -20 -20 -20 -20 -20 -20 -20 -20 -20 -20 -20 -20
12 17 17 4 -11 -16 -20 -20 -20 -20 -20 -20 -20 -20 -20 -20 -20 -20 -20 -20 -20 -20 -20 -20 -20 -20 -20 -20 -20 -20 -20 -20 -20 -20 -20 -20 -20 -20 -20 -20 -20 -20 -20 -20
17 4 -11 -20 -20 -20 -20 -19 2 -14 -20 -20 -20 -20 -20 -20 -20 -20 -20 -20 -20 -20 -20 -20 -20 -20 -20 -20 -20 -20 -20 -20 -20 -20 -20 -20 -20 -20 -20 -20 -20 -20 -20 -20
-4 -20 -20 -20 -20 -20 -17 -14 -19 -20 -20 -20 -20 -20 -20 -20 -20 -20 -20 -20 -20 -20 -20 -20 -20 -20 -20 -20 -20 -20 -20 -20 -20 -20 -20 -20 -20 -20 -20 -20 -20 -20 -20 -20
-20 -20 -20 -20 -20 -8 7 -7 -20 -20 -20 -20 -20 -20 -20 -20 -20 -20 -20 -20 -20 -20 -20 -20 -20 -20 -20 -20 -20 -20 -20 -20 -20 -20 -20 -20 -20 -20 -20 -20 -20 -20 -20 -20
-20 -20 -20 -20 -18 0 -3 -20 -20 -20 -20 -20 -20 -20 -20 -20 -20 -20 -20 -20 -20 -20 -20 -20 -20 -20 -20 -20 -20 -20 -20 -20 -20 -20 -20 -20 -20 -20 -20 -20 -20 -20 -20 -20
Wind_Speed
31 31 36 42 41 28 10 6 6 5 4 7 2 4 5 5 4 4 3 5 5 5 4 4 3 4 4 2 6 1 1 5 1 6 5 3 5 3 4 6 7 1 3 6
34 36 37 43 42 29 8 6 4 4 3 6 3 2 3 2 4 3 3 3 4 3 5 5 5 3 1 3 4 5 5 2 4 7 5 5 5 1 3 3 3 3 4 7
37 39 39 40 36 20 10 7 6 4 4 0 7 6 4 4 2 3 4 5 5 5 3 3 5 3 5 4 2 7 5 3 7 6 8 3 3 3 3 4 4 3 6 7
39 39 42 38 30 18 9 4 4 6 8 5 5 4 7 6 5 3 4 3 4 7 5 4 4 4 3 1 4 3 3 2 4 5 7 4 3 2 2 2 5 5 6 6
40 39 40 35 20 13 8 8 8 3 3 13 6 4 7 9 5 7 5 8 7 5 7 6 8 7 4 3 2 3 1 1 2 3 4 3 3 4 5 4 3 4 3 8
40 40 38 31 24 6 5 1 4 7 6 6 6 7 8 9 9 3 8 11 7 6 6 6 7 4 4 7 6 3 2 2 3 3 5 5 7 8 8 4 4 5 3 10
40 38 38 30 21 3 6 4 5 7 4 7 9 11 6 13 6 8 5 8 7 5 8 5 5 5 4 4 3 3 4 3 2 1 1 2 8 2 4 6 6 7 6 7
39 37 34 30 13 7 7 4 5 5 5 5 5 9 8 9 6 5 6 2 6 8 6 5 3 4 3 2 5 5 4 4 2 3 3 6 2 4 6 7 9 8 7 8
37 36 31 24 10 13 6 3 3 6 9 9 7 9 17 10 6 4 3 5 5 7 4 4 4 4 3 3 1 5 6 5 5 2 1 4 6 4 4 5 7 5 8 9
36 35 28 21 13 10 6 3 3 7 6 2 10 7 15 8 6 6 4 5 4 4 3 3 3 2 4 4 5 4 3 3 5 2 3 8 6 4 5 5 10 4 6 10
33 29 27 19 14 12 6 2 2 7 4 1 3 5 8 5 6 9 7 6 4 3 4 4 4 3 5 2 3 5 6 6 4 3 2 8 5 4 5 9 4 4 4 6
31 28 28 23 14 13 9 5 2 3 7 4 1 5 4 7 9 10 1 5 6 6 5 1 3 2 2 5 3 1 2 8 7 9 9 7 5 8 6 4 6 4 4 6
29 27 25 19 14 12 11 4 3 5 4 5 7 5 6 6 11 8 7 1 5 3 4 5 3 3 5 4 6 3 4 4 4 4 5 8 8 6 7 6 7 4 4 5
29 26 25 19 16 17 11 6 2 5 5 6 4 3 5 2 7 6 5 8 5 6 3 3 3 3 3 4 3 5 6 6 5 5 6 5 7 7 7 6 5 3 4 3
29 25 24 22 22 21 11 5 1 1 8 5 2 2 6 4 7 10 9 9 6 3 3 3 3 2 3 1 1 4 6 8 6 7 8 5 7 7 6 7 6 7 7 4
26 24 24 24 23 14 5 6 4 3 5 6 4 4 5 8 9 11 9 4 4 4 4 3 2 3 4 3 4 6 5 5 7 4 4 8 5 7 6 7 7 5 7 6
26 21 23 19 11 5 4 6 5 2 4 6 4 2 3 2 4 4 4 4 2 4 2 1 3 1 4 3 5 6 6 8 6 7 3 2 4 7 7 7 7 9 7 5
25 24 22 21 21 12 4 4 5 4 7 5 5 1 1 1 2 3 2 2 3 4 3 1 2 1 1 6 8 5 5 7 5 7 8 6 5 6 6 8 9 8 7 5
28 23 17 9 7 4 1 1 8 3 6 5 4 7 5 2 2 2 3 2 2 1 2 3 4 3 8 8 8 6 6 6 8 5 5 6 6 8 9 8 7 7 6 6
23 14 7 3 2 3 4 7 5 6 4 3 4 3 3 4 2 1 4 1 3 2 5 3 4 6 7 8 9 8 8 8 8 7 4 5 5 8 9 9 6 7 7 6
5 5 3 3 2 4 4 3 4 1 2 2 4 4 6 1 5 4 2 4 2 2 4 4 4 5 6 8 9 7 8 8 9 6 6 9 11 10 8 7 7 7 7 6
7 8 5 3 5 4 6 1 0 3 7 3 6 6 5 2 4 5 2 4 2 4 2 3 5 6 5 3 7 7 8 8 8 6 8 9 9 9 8 7 7 7 7 6
4 7 5 4 2 6 9 8 5 3 5 5 5 7 5 2 3 4 4 4 5 2 2 6 7 4 3 5 6 6 6 7 7 6 6 8 8 7 7 8 7 7 7 6
4 5 4 5 4 6 7 5 6 4 5 11 9 4 4 2 4 3 5 3 4 0 2 8 4 6 6 5 5 8 7 8 9 9 8 8 9 8 8 6 5 7 7 7
4 4 5 6 3 2 1 3 4 3 10 9 5 5 4 2 5 1 4 3 4 6 7 5 5 6 7 7 6 7 8 6 7 6 7 6 5 5 6 4 5 6 4 6
3 3 3 1 2 1 1 2 3 3 9 4 5 4 4 2 5 4 7 7 8 6 5 4 2 6 7 6 6 7 7 7 7 6 6 6 6 7 6 3 6 5 6 7
2 1 1 2 0 3 3 4 5 4 11 4 4 6 6 4 4 2 5 7 5 5 4 3 5 8 8 7 6 6 6 6 6 5 5 5 4 4 3 5 5 6 7 7
Wind_Direction
158 154 154 144 144 148 78 94 93 294 5 73 91 150 191 187 137 79 93 105 113 142 142 114 146 149 177 164 158 48 122 133 102 234 270 154 120 153 103 108 296 238 152 280
154 152 155 152 154 161 104 87 101 309 70 133 179 254 189 145 122 138 131 113 128 115 138 104 130 129 198 180 160 164 182 17 28 347 353 17 63 314 115 129 68 214 124 269
153 154 157 159 158 131 93 104 100 7 40 99 140 143 152 115 129 119 110 111 89 104 101 85 133 138 213 193 139 122 100 88 146 179 218 172 329 348 41 113 92 217 228 293
155 159 161 169 157 144 98 66 173 178 176 214 164 129 147 142 154 131 117 72 146 139 118 97 149 162 166 183 122 74 109 132 183 241 243 184 203 239 348 89 209 137 254 217
157 161 166 168 163 128 79 125 133 73 99 138 122 140 190 155 155 139 170 137 142 112 136 172 171 136 181 155 95 138 250 260 126 322 109 122 281 244 233 229 210 285 253 283
158 162 166 171 181 89 104 106 68 103 138 133 123 187 170 179 130 31 147 132 105 104 159 163 142 165 148 146 140 159 111 86 41 353 40 358 324 223 205 222 193 173 231 237
162 165 167 171 176 186 124 159 113 101 154 165 179 152 147 157 134 134 130 116 115 197 105 102 62 54 97 118 157 152 120 91 93 88 258 302 242 187 183 200 242 218 263 266
163 164 168 169 158 143 108 141 113 119 107 142 138 161 135 110 99 84 125 125 148 132 73 72 68 353 36 246 208 179 149 112 74 136 211 272 240 194 192 180 263 213 225 252
163 166 169 173 137 120 98 84 111 106 110 225 144 150 162 144 122 58 84 39 92 76 89 85 158 169 174 208 153 41 89 79 126 127 107 268 236 240 178 109 293 236 211 253
162 163 158 156 141 111 102 100 133 91 104 155 139 165 160 132 105 107 114 143 78 66 87 107 160 204 173 166 179 176 111 57 159 134 208 286 243 194 133 95 242 234 205 232
158 156 155 154 125 125 92 143 59 103 102 74 163 144 145 112 123 146 177 79 330 53 88 131 205 129 219 106 202 178 159 162 196 88 82 286 206 139 183 216 232 232 239 227
152 152 154 159 140 129 105 71 2 63 86 162 313 83 139 138 158 128 48 154 167 176 97 199 114 115 80 160 240 52 215 183 180 171 213 233 218 206 230 183 217 233 202 229
148 148 146 138 122 102 100 114 94 62 96 33 43 14 345 75 136 136 120 334 161 172 176 155 163 135 124 159 241 189 250 164 186 91 246 227 236 252 242 214 208 226 223 192
143 140 138 126 113 98 90 94 62 84 106 100 309 327 48 29 116 98 120 132 84 102 81 94 133 150 167 200 202 181 199 137 190 252 285 278 267 234 216 194 193 144 127 134
138 133 122 113 97 83 77 79 343 146 116 143 135 324 10 23 107 98 102 113 108 91 66 78 196 154 115 225 87 237 184 186 168 219 228 191 240 219 178 174 182 168 138 110
130 119 117 114 117 123 102 48 338 327 109 100 89 291 11 37 81 86 87 89 87 93 131 191 230 242 114 160 227 252 213 196 165 219 227 214 245 216 177 179 163 160 132 134
118 105 111 110 107 70 108 176 175 125 82 91 83 61 342 40 65 53 47 32 88 105 126 155 167 248 120 171 226 231 205 199 203 224 194 170 176 205 184 137 123 117 113 123
115 110 111 112 100 110 48 345 65 88 87 80 105 114 91 39 51 76 1 67 27 19 153 67 175 25 120 252 234 231 231 239 265 255 198 206 172 111 111 126 131 130 137 136
122 121 107 71 40 68 145 125 80 60 110 113 109 145 195 131 104 104 39 78 68 314 165 238 115 203 222 227 208 207 207 180 173 180 151 124 136 142 143 141 143 140 161 168
123 105 72 78 227 244 86 10 31 23 352 66 109 130 159 117 131 42 96 8 164 177 238 110 198 250 237 225 211 197 199 183 152 129 114 114 145 160 165 178 171 171 176 169
62 80 94 184 215 71 41 56 101 308 49 116 150 153 133 266 109 142 196 175 169 159 252 157 248 268 243 215 204 199 187 194 194 198 182 180 169 168 161 168 179 174 174 185
164 122 106 89 56 57 101 171 190 185 204 164 145 161 147 173 129 112 212 143 116 225 135 96 265 249 250 223 199 184 178 174 180 181 175 163 158 158 165 171 182 190 191 169
62 62 71 90 325 58 167 187 214 191 165 174 153 135 134 104 71 74 123 112 203 90 74 229 229 247 246 187 143 143 154 147 136 126 134 140 148 151 165 187 201 184 188 186
85 119 116 165 198 225 192 182 164 193 129 143 137 106 135 165 86 145 108 185 111 135 234 237 241 217 193 174 144 123 156 155 154 159 159 165 169 189 198 208 181 172 197 190
103 107 175 196 215 212 201 127 97 189 152 133 102 73 102 54 100 183 117 115 232 210 229 229 232 197 166 167 161 154 157 160 158 161 169 187 184 188 225 227 204 197 148 176
88 101 95 87 96 358 56 141 168 206 146 96 70 120 96 160 130 132 198 170 215 242 218 226 201 166 166 170 171 176 171 171 173 172 180 180 182 200 218 179 205 202 190 198
57 285 131 158 74 162 182 171 179 160 152 144 124 109 185 110 101 206 185 204 216 212 236 216 201 175 177 169 166 170 174 180 188 180 188 200 201 169 178 233 243 210 213 208